Theta_e
342 339 337 335 335 336 336 337 341 339 337 336 337 335 336 336 336 336 338 339 341 339 340 339 338 340 343 342 335 334 342 342 342 340 335 339 337 334 334 341 343 344 339
338 338 338 337 334 335 337 337 337 334 337 337 335 333 336 338 334 334 338 341 340 338 339 341 342 342 343 341 341 342 342 342 341 339 340 333 334 337 338 342 342 333 330
337 338 337 337 338 337 338 338 335 326 335 335 338 336 334 338 336 331 339 338 340 338 337 338 340 341 344 344 344 343 343 341 341 342 341 340 335 328 326 325 329 332 332
337 337 336 336 336 335 337 334 336 333 328 331 329 332 335 337 338 340 338 340 342 340 336 340 339 340 340 340 340 338 338 340 344 347 346 346 346 340 340 340 335 333 333
339 343 340 337 336 335 337 333 338 327 336 334 338 338 332 324 328 336 338 341 343 343 343 340 339 340 340 336 335 336 337 338 343 344 345 346 345 341 335 337 338 340 341
344 344 334 330 335 332 337 330 332 334 337 336 336 335 333 336 332 338 337 340 338 337 338 338 334 333 335 332 333 336 337 342 345 344 344 346 345 341 342 335 338 335 341
342 343 341 331 334 333 337 336 336 336 336 336 334 336 338 334 336 337 332 337 337 338 337 333 329 327 325 326 328 333 335 342 344 347 346 346 345 337 335 335 342 334 329
341 341 344 331 333 335 337 339 338 337 338 338 336 337 335 335 336 337 331 334 337 339 339 334 334 333 331 326 324 325 328 343 343 342 343 343 331 334 332 333 336 330 325
344 344 345 345 340 336 338 338 338 338 338 336 335 337 338 337 335 337 330 334 338 340 338 336 337 336 334 331 327 323 323 332 342 342 341 340 324 324 324 324 325 325 325
343 345 346 345 345 346 345 338 337 339 338 334 336 339 339 329 328 327 330 336 338 340 340 339 340 338 339 338 335 326 327 333 336 339 339 328 324 324 325 326 328 331 334
343 344 345 346 347 346 346 340 340 337 337 337 341 338 343 341 342 344 336 336 338 340 341 340 339 338 338 336 333 330 341 336 335 337 337 327 330 333 336 338 339 339 340
342 341 345 345 345 347 347 345 344 346 345 345 344 343 342 343 343 340 328 338 338 339 339 338 338 341 345 344 342 343 341 338 336 338 336 336 338 338 338 339 340 341 343
341 342 345 345 347 347 347 346 346 344 345 342 342 343 343 342 343 342 336 341 342 340 342 343 345 345 346 345 344 341 340 340 338 339 338 337 337 339 342 343 344 344 344
342 343 345 345 348 348 346 345 345 345 344 342 342 344 345 343 343 341 341 340 342 343 342 346 344 346 346 344 344 342 341 339 338 339 337 340 342 343 343 343 343 342 342
342 343 344 345 349 348 347 345 344 344 344 344 344 344 345 343 341 342 340 344 345 346 346 347 346 347 346 344 345 343 340 340 339 341 341 340 341 341 341 342 342 343 344
342 344 344 345 350 347 346 345 344 343 344 345 346 345 338 344 344 344 344 346 347 348 347 347 347 347 344 344 344 343 340 339 339 341 343 342 342 342 342 342 342 343 344
342 343 344 346 347 347 345 343 345 344 344 345 346 339 337 342 341 344 344 345 346 340 342 343 347 344 344 343 344 344 344 343 341 341 343 343 342 342 342 341 341 342 342
342 343 344 344 347 349 349 347 346 345 345 347 348 347 337 337 340 342 346 346 341 345 347 346 345 344 345 344 342 342 344 344 346 346 346 346 347 345 344 344 343 342 343
342 344 344 344 347 348 347 348 348 347 347 348 347 347 339 339 338 344 346 347 345 351 352 350 347 346 345 344 343 344 344 344 346 344 349 347 348 347 348 346 345 346 346
343 344 344 346 347 348 348 348 348 347 347 347 347 347 340 341 340 345 347 346 351 351 351 352 351 350 348 347 344 345 346 345 346 348 348 346 348 347 349 349 351 352 347
345 346 347 347 348 347 347 348 347 346 348 347 346 342 340 343 340 339 347 345 349 352 348 352 349 351 350 349 348 347 347 345 345 346 347 347 348 348 349 352 352 353 353
345 346 348 348 345 348 348 347 348 346 347 347 347 346 347 346 341 343 344 343 345 350 348 352 347 350 350 350 349 347 344 344 342 345 347 348 349 349 350 352 353 347 347
346 346 347 349 348 344 348 347 347 348 345 345 347 347 346 344 345 341 341 346 345 347 350 347 349 345 349 351 347 351 345 345 347 348 349 349 349 349 351 352 351 347 345
347 347 347 348 347 343 343 348 342 344 346 347 348 348 349 348 346 349 341 341 342 348 346 349 351 349 347 351 351 350 346 349 348 347 349 349 349 350 350 350 350 351 342
347 348 347 348 344 349 342 347 345 347 346 347 348 348 345 346 348 348 344 340 340 342 343 342 344 347 351 349 349 351 348 349 349 348 346 348 348 348 347 348 349 349 350
347 348 348 348 342 345 342 342 344 348 348 348 346 348 348 348 348 348 348 344 343 345 343 345 343 345 347 349 350 348 349 348 347 347 346 348 348 348 348 347 347 348 349
Wind_Speed
10 11 12 15 14 14 13 11 11 15 17 16 17 17 16 17 17 16 16 15 15 14 15 14 14 13 13 14 14 15 15 15 15 16 15 15 14 15 16 20 16 12 13
15 12 12 14 12 11 10 9 10 13 18 18 18 19 17 17 16 17 16 16 16 16 16 16 17 16 16 16 16 15 15 15 16 17 17 16 16 15 14 17 15 12 11
13 13 13 12 9 9 10 10 11 14 17 18 17 17 16 16 16 16 15 16 16 16 17 18 17 17 17 17 16 16 15 16 18 21 19 14 15 14 13 13 12 12 11
12 13 12 11 8 9 10 10 13 14 16 15 15 15 16 15 15 15 15 16 17 16 17 16 17 17 16 16 15 15 15 16 19 17 16 13 12 14 13 13 12 12 11
16 10 8 9 8 7 8 11 12 14 14 14 14 15 14 13 12 14 14 15 19 19 18 18 16 15 15 16 16 16 16 18 22 15 13 13 10 12 11 13 10 11 12
12 10 9 8 7 7 8 11 12 14 14 14 13 13 14 14 13 13 14 15 16 17 17 16 15 15 14 14 15 16 17 21 16 13 12 12 11 12 11 10 11 10 9
11 9 6 7 7 8 9 11 12 13 14 14 15 13 12 12 13 11 13 15 15 16 17 17 17 16 16 14 15 15 15 20 13 11 11 10 10 9 8 10 8 8 7
11 10 7 9 9 9 10 10 12 12 13 12 12 12 12 11 12 12 13 14 15 15 16 16 16 17 16 16 15 14 13 18 11 10 10 7 9 6 6 7 6 5 6
11 10 9 8 10 11 11 12 12 11 12 12 12 12 12 11 11 11 13 15 14 14 15 15 15 15 16 17 16 13 12 13 9 9 8 6 8 7 6 6 5 6 6
12 11 11 11 9 9 9 12 11 12 13 14 13 12 12 11 11 12 13 15 14 13 13 13 13 14 14 14 13 13 15 15 7 8 8 7 9 8 8 8 8 8 8
12 12 11 12 11 14 11 11 12 11 12 13 11 13 14 10 11 11 13 14 12 12 11 11 12 12 14 14 12 12 15 7 7 8 5 9 10 10 10 9 9 9 8
13 13 12 11 11 10 11 10 12 12 10 10 10 11 11 11 12 10 13 12 11 11 10 10 10 12 12 6 6 11 7 7 7 8 6 9 10 10 10 10 10 10 9
14 14 13 13 12 11 10 9 10 10 9 10 11 11 12 11 9 8 10 8 7 9 6 5 6 6 6 6 6 6 7 8 7 7 8 10 10 11 12 11 11 11 11
15 14 14 13 12 12 10 10 11 10 10 10 10 11 10 8 8 7 6 6 6 5 5 5 5 6 7 8 8 8 8 7 7 8 9 11 13 13 13 12 11 11 11
15 15 15 14 12 12 13 11 11 10 10 9 9 8 8 5 5 5 5 5 6 5 4 4 5 7 9 9 9 10 9 9 9 9 7 11 12 12 12 11 10 10 8
15 15 15 14 12 11 11 12 11 11 10 9 7 6 6 5 6 4 5 5 4 4 3 4 5 6 8 9 11 10 10 10 11 11 8 9 10 10 10 9 8 7 7
16 16 15 15 13 13 12 12 10 10 10 9 7 8 8 8 6 8 6 5 4 4 4 3 4 6 7 8 8 9 9 9 9 10 7 6 6 9 8 7 7 7 7
16 16 15 14 14 13 11 11 11 11 10 8 7 6 9 8 9 8 6 5 5 4 3 4 5 6 7 7 7 7 6 6 7 9 6 7 4 2 5 5 6 6 6
16 17 16 15 14 13 13 11 11 9 7 8 8 7 8 9 8 8 7 4 5 4 5 6 6 7 6 6 6 5 4 5 5 3 3 3 1 1 1 4 4 5 6
16 16 17 15 14 14 12 12 10 8 7 7 7 7 10 9 9 8 5 6 6 5 4 6 7 6 6 5 4 4 4 4 5 4 2 1 2 1 1 3 4 7 7
16 17 18 18 16 14 13 11 10 9 9 7 7 10 10 8 7 9 6 4 5 5 5 4 4 5 2 3 4 3 3 5 5 5 3 3 4 3 5 5 6 6 8
18 18 19 18 18 16 13 14 10 9 8 8 8 10 9 8 7 6 9 6 6 3 4 3 5 3 1 2 3 4 5 4 5 5 5 5 5 6 6 7 8 10 9
20 21 20 19 18 18 15 14 13 13 10 9 8 7 8 9 7 9 10 9 8 5 2 2 1 2 1 1 3 3 4 4 3 6 7 7 8 7 8 8 8 9 10
21 20 21 21 19 18 19 16 15 11 9 10 8 8 8 9 8 7 8 9 9 5 5 3 2 2 1 2 1 1 1 1 6 4 4 5 4 5 7 6 7 6 9
21 20 20 20 22 18 21 16 14 11 10 7 8 9 9 9 8 9 9 9 9 7 8 8 6 5 3 3 4 4 4 4 4 5 10 3 6 6 7 8 8 7 8
22 21 20 21 23 23 22 19 14 12 12 11 11 8 9 8 8 11 9 10 9 8 8 7 9 8 7 4 2 3 4 6 6 7 8 7 7 7 7 6 4 5 3
Wind_Direction
149 135 125 112 100 95 93 92 99 98 98 101 104 103 105 101 96 99 95 98 96 96 96 91 91 92 97 100 102 100 100 98 96 94 97 94 96 98 103 92 76 99 104
141 129 124 119 101 91 87 90 94 97 103 104 102 101 100 96 96 98 98 97 96 95 96 93 88 90 98 100 103 103 103 102 98 92 86 91 100 101 104 116 124 104 109
136 132 127 115 111 97 99 99 88 97 108 105 98 98 99 96 95 100 97 96 95 98 97 91 91 91 95 98 100 101 100 99 95 85 89 92 95 98 102 103 105 102 103
134 129 124 112 98 94 95 99 96 98 102 104 103 100 98 95 94 95 97 98 93 98 99 94 92 93 95 96 98 101 103 102 94 87 96 90 92 95 94 93 95 95 92
141 138 155 132 118 98 101 109 103 107 101 106 103 102 94 99 105 98 102 100 88 88 96 96 94 96 97 97 98 101 101 96 85 88 94 93 93 95 93 89 82 94 108
152 148 161 151 127 111 109 113 108 106 106 103 104 105 102 101 104 100 109 104 93 90 97 93 90 97 100 99 98 98 98 91 85 86 86 104 119 94 92 97 89 89 87
153 155 148 149 132 125 118 120 110 114 116 112 110 109 109 107 106 100 112 108 98 93 104 97 94 92 91 95 97 94 95 96 95 83 84 87 93 87 86 96 90 76 80
155 144 149 144 137 131 128 122 118 118 114 109 110 109 108 108 113 112 115 113 104 98 105 103 95 88 86 85 87 92 95 96 89 94 101 100 97 98 86 88 96 73 70
145 142 137 134 142 138 131 120 122 114 111 108 113 112 109 109 112 107 117 117 111 104 105 101 91 86 81 78 78 84 91 100 95 100 78 78 89 89 92 90 85 74 70
144 145 146 140 138 124 126 124 120 113 114 119 120 112 103 114 114 107 115 124 116 108 106 98 90 86 77 71 71 80 83 72 98 80 90 98 97 97 93 88 86 84 79
149 147 143 147 143 147 137 132 120 118 114 115 115 110 88 103 100 104 134 130 124 114 104 90 86 73 70 63 66 80 74 95 96 94 94 100 99 96 89 83 78 73 67
153 153 153 147 140 134 135 137 128 114 123 120 123 116 111 115 132 121 122 124 119 110 94 90 77 63 63 60 28 53 84 99 99 98 103 94 94 94 90 85 78 74 72
156 155 152 154 145 137 146 133 121 126 119 117 117 113 120 108 107 111 117 118 113 107 91 79 54 58 64 87 83 96 100 90 91 102 99 100 99 97 94 91 89 85 81
159 157 156 155 150 147 146 137 144 143 134 125 128 116 113 106 103 119 126 127 109 110 102 89 75 74 66 74 103 101 100 99 106 104 97 101 100 97 94 89 85 80 75
159 159 162 159 156 150 144 149 152 150 134 144 124 132 129 120 121 117 135 122 119 108 108 82 88 85 72 85 96 99 102 107 107 108 105 102 101 100 96 90 87 84 78
164 162 167 160 159 155 156 150 147 145 153 140 147 153 140 132 131 118 121 128 113 116 116 114 101 92 98 96 98 103 104 102 110 112 120 94 92 88 87 89 85 73 60
164 164 168 162 163 158 155 143 145 147 156 154 153 144 146 134 130 128 129 127 128 119 124 117 94 97 111 110 107 106 103 110 110 116 107 114 77 81 78 75 70 65 55
167 167 166 164 164 159 163 150 151 158 156 162 160 149 154 142 133 120 122 128 139 117 140 138 128 131 130 129 123 118 122 119 124 121 120 112 109 103 56 61 58 51 45
173 170 168 171 168 169 166 159 160 175 161 170 159 152 162 145 138 134 133 128 118 121 120 121 127 137 137 139 132 125 138 142 140 150 145 113 149 146 198 332 25 13 8
173 171 169 170 176 166 175 166 166 169 164 164 167 163 154 153 141 138 151 129 110 115 108 131 136 148 151 164 154 158 166 180 180 179 211 231 233 222 312 304 319 324 326
179 177 175 175 179 173 174 173 175 182 177 177 170 168 157 159 159 155 165 136 110 128 138 112 98 116 109 168 168 183 190 202 216 227 226 218 247 271 263 291 305 292 301
186 189 184 184 189 185 189 178 186 186 176 185 184 181 182 170 175 173 179 175 177 149 125 111 129 145 96 173 199 196 183 198 216 223 233 232 250 264 276 287 284 302 298
195 194 197 194 199 198 189 197 192 192 187 179 181 189 199 188 188 188 190 186 192 182 196 146 137 139 194 301 186 238 216 229 208 235 249 254 255 267 272 290 285 302 303
199 197 201 206 206 206 198 200 204 199 200 201 197 192 194 193 194 193 192 197 202 211 217 239 272 198 201 240 258 284 228 291 279 239 228 258 273 273 272 289 286 295 317
200 198 199 202 206 194 201 195 200 203 217 216 197 212 209 203 205 203 204 210 214 217 237 229 229 232 262 240 254 263 278 287 301 290 298 310 305 289 282 290 279 298 309
201 198 196 197 202 198 196 204 204 212 211 208 220 218 210 232 224 221 221 222 224 225 235 234 234 242 232 243 270 286 275 275 282 280 284 288 299 292 300 307 293 302 298